APRIZESAT 9

Satellite information

Favourite Embed

Satellite Type and Status

PAYLOADIN ORBIT

Key statistics

Satellite APRIZESAT 9 at a glance.

Uptime

4199

Days in orbit

Revolutions

≈ 14.7

Per day

Orbit

SSO

Sun Synchronous Orbit

Inclination

97.9

Latest

Satellite identification and parameters

Extended collection of information and parameters for APRIZESAT 9.

Object identification

Identified? True

Debris? False

Object name: APRIZESAT 9

International designator: 2014-033J

Object number (NORAD): 40018

Object ID (CCSDS): 40018

Country: UNITED STATES OF AMERICA (US)

Current information (Y/N): Y

RCS size: MEDIUM

Orbital parameters

Period: 97.7 minutes

Inclination: 97.8793 deg

SMA: 7026.802 km

Apoapsis: 696.298 km

Periapsis: 601.035 km

RAAN: 123.9498 deg

Eccentricy: 0.00677858

Argument of periapsis: 66.784 deg

Mean anomaly: 294.0488 deg

Mean motion: 14.73893873 rev/day

Mean motion (dot): 0.00000624 rev/day2

B* drag term: 0.000099382566 1/REarth

Two-line elements (TLE)

Creation date: Dec. 17, 2025, 2:25 a.m.

Reference frame: TEME

Reference center: EARTH

Epoch: Dec. 16, 2025, 10:46 p.m. UTC

TLE line 0: 0 APRIZESAT 9

TLE line 1: 1 40018U 14033J 25350.94899624 .00000624 00000-0 99383-4 0 9998

TLE line 2: 2 40018 97.8793 123.9498 0067786 66.7840 294.0488 14.73893873616718

Live tracking on map

Real-time ground track for satellite APRIZESAT 9.

In-orbit conjunctions

There are no conjunctions computed for APRIZESAT 9, at the moment. Check back to stay up to date, as we update our databases every day.

Go to all conjunctions

Associated space launch

APRIZESAT 9 was lifted into orbit during the mission ‘Dnepr 1 | Multipayload, 37 satellites.’, on board a Dnepr space rocket.

The launch took place on June 19, 2014, 7:11 p.m. from 370/13.

For more information about the launch, click the button.

Launch to space Dnepr 1 | Multipayload, 37 satellites.
Dnepr 1 | Multipayload, 37 satellites.

Agency: N/A

Status: Launch Successful

Launch date: June 19, 2014, 7:11 p.m. UTC

Rocket: Dnepr

Launch pad: 370/13

Location: Dombarovskiy, Russian Federation

...

Latest news about this satellite

There are no fresh news available about this satellite. Check back as we update our databases every day.


Newsletter sign-up

Weekly statistics, charts and insights to help you stay on top of the space industry.